This demonstration page uses our WeatherBlox Daily Observations layout. Learn more.

Left ArrowRight Arrow

Hourly Observations for August 3, 2015

Temp ( °F °C ) Dew Point ( °F °C ) Humidity (%) Winds ( mph kmh ) Pressure ( in mb ) Visibility ( mi km ) Precip ( " mm )
12:51 am 00:51 Clear 83 28.4 77 25 82 82 E 8 13 29.76 1008 10 16 0.00 0.00
1:51 am 01:51 Clear 78 25.6 56 13.3 47 47 E 9 15 29.76 1008 10 16 0.00 0.00
2:51 am 02:51 Clear 76 24.4 56 13.3 50 50 Calm 29.76 1008 10 16 0.00 0.00
3:51 am 03:51 Clear 71 21.7 58 14.4 63 63 Calm 29.77 1008 10 16 0.00 0.00
4:51 am 04:51 Clear 69 20.6 58 14.4 68 68 Calm 29.79 1009 10 16 0.00 0.00
5:51 am 05:51 Sunny 69 20.6 58 14.4 68 68 ENE 5 7 29.81 1010 10 16 0.00 0.00
6:51 am 06:51 Sunny 80 26.7 56 13.3 44 44 SE 7 11 29.83 1010 10 16 0.00 0.00
7:51 am 07:51 Sunny 62 16.7 52 11.1 70 70 SE 6 9 29.69 1005 10 16 0.00 0.00
8:51 am 08:51 Sunny 82 27.7 74 23.1 76 76 SSW 5 7 29.77 1008 10 16 0.00 0.00
9:51 am 09:51 Sunny 90 32.2 54 12.2 29 29 SSE 6 9 29.70 1006 10 16 0.00 0.00
10:51 am 10:51 Sunny 92 33.3 54 12.2 28 28 VRB 3 6 29.83 1010 10 16 0.00 0.00
11:51 am 11:51 Sunny 96 35.6 51 10.6 22 22 W 7 11 29.81 1010 10 16 0.00 0.00
12:51 pm 12:51 Mostly Sunny 100 37.8 47 8.3 16 16 WNW 9 15 29.78 1008 10 16 0.00 0.00
1:51 pm 13:51 Mostly Sunny 101 38.3 44 6.7 14 14 W 7 11 29.74 1007 10 16 0.00 0.00
2:51 pm 14:51 Partly Cloudy 102 38.9 41 5 12 12 W 13 20 29.72 1006 10 16 0.00 0.00
3:51 pm 15:51 Mostly Cloudy 103 39.4 42 5.6 12 12 WNW 14 22 29.70 1006 10 16 0.00 0.00
4:51 pm 16:51 Mostly Cloudy 101 38.3 37 2.8 11 11 W 16 26 29.89 1012 10 16 0.00 0.00
5:51 pm 17:51 Partly Cloudy 100 37.8 39 3.9 12 12 W 16 26 29.68 1005 10 16 0.00 0.00
6:51 pm 18:51 Mostly Sunny 98 36.7 42 5.6 15 15 WNW 15 24 29.68 1005 10 16 0.00 0.00
7:51 pm 19:51 Partly Cloudy 93 33.9 45 7.2 19 19 WNW 8 13 29.70 1006 10 16 0.00 0.00
8:51 pm 20:51 Clear 89 31.7 46 7.8 23 23 VRB 7 11 29.72 1007 10 16 0.00 0.00
9:51 pm 21:51 Clear 84 28.9 69 20.6 61 61 NW 10 17 29.87 1012 10 16 0.00 0.00
10:51 pm 22:51 Clear 85 29.4 46 7.8 26 26 NW 10 17 29.64 1004 10 16 0.00 0.00
11:51 pm 23:51 Clear 71 21.7 64 17.8 79 79 WNW 9 15 29.90 1013 10 16 0.00 0.00

Powered by AerisWeather